EN

Hourly Weather Havana

Today, 3 December, Thursday

Time Temperature Precipitation Wind Pressure Humidity
00:00 +20°C° 0 mm 8 mps 764 mmHg 87%
01:00 +18°C° 0 mm 7 mps 764 mmHg 89%
02:00 +18°C° 0 mm 7 mps 763 mmHg 90%
03:00 +18°C° 0 mm 7 mps 763 mmHg 90%
04:00 +18°C° 0 mm 7 mps 763 mmHg 91%
05:00 +18°C° 0 mm 7 mps 763 mmHg 91%
06:00 +18°C° 0 mm 7 mps 763 mmHg 90%
07:00 +18°C° 0 mm 7 mps 763 mmHg 90%
08:00 +21°C° 0 mm 7 mps 763 mmHg 85%
09:00 +23°C° 0 mm 8 mps 764 mmHg 80%
10:00 +24°C° 0 mm 8 mps 764 mmHg 74%
11:00 +26°C° 0 mm 8 mps 764 mmHg 73%
12:00 +27°C° 0 mm 8 mps 764 mmHg 72%
13:00 +27°C° 0 mm 8 mps 763 mmHg 71%
14:00 +27°C° 0 mm 7 mps 763 mmHg 72%
15:00 +27°C° 0 mm 7 mps 762 mmHg 74%
16:00 +26°C° 0 mm 7 mps 762 mmHg 75%
17:00 +24°C° 0 mm 7 mps 762 mmHg 79%
18:00 +23°C° 0 mm 6 mps 762 mmHg 82%
19:00 +22°C° 0 mm 6 mps 763 mmHg 86%
20:00 +21°C° 0 mm 6 mps 763 mmHg 88%
21:00 +21°C° 0 mm 5 mps 763 mmHg 90%
22:00 +20°C° 0 mm 5 mps 764 mmHg 92%
23:00 +20°C° 0 mm 5 mps 764 mmHg 92%

Tomorrow, 4 December, Friday

Time Temperature Precipitation Wind Pressure Humidity
00:00 +20°C° 0 mm 5 mps 763 mmHg 92%
01:00 +20°C° 0 mm 5 mps 763 mmHg 92%
02:00 +20°C° 0 mm 5 mps 763 mmHg 92%
03:00 +20°C° 0 mm 5 mps 763 mmHg 92%
04:00 +20°C° 0 mm 5 mps 762 mmHg 92%
05:00 +20°C° 0 mm 5 mps 763 mmHg 92%
06:00 +21°C° 0 mm 5 mps 763 mmHg 93%
07:00 +21°C° 0 mm 5 mps 763 mmHg 93%
08:00 +22°C° 0 mm 5 mps 763 mmHg 87%
09:00 +24°C° 0 mm 6 mps 764 mmHg 81%
10:00 +26°C° 0 mm 6 mps 764 mmHg 74%
11:00 +27°C° 0 mm 5 mps 763 mmHg 72%
12:00 +28°C° 0 mm 5 mps 763 mmHg 69%
13:00 +29°C° 0 mm 4 mps 762 mmHg 67%
14:00 +29°C° 0 mm 4 mps 762 mmHg 69%
15:00 +28°C° 0 mm 4 mps 761 mmHg 71%
16:00 +28°C° 0 mm 4 mps 761 mmHg 73%
17:00 +27°C° 0 mm 4 mps 761 mmHg 79%
18:00 +25°C° 0 mm 5 mps 762 mmHg 85%
19:00 +23°C° 0 mm 5 mps 762 mmHg 91%
20:00 +23°C° 0 mm 5 mps 762 mmHg 92%
21:00 +22°C° 0 mm 5 mps 762 mmHg 93%
22:00 +22°C° 0 mm 4 mps 763 mmHg 94%
23:00 +22°C° 0 mm 4 mps 763 mmHg 94%

Day after tomorrow, 5 December, Saturday

Time Temperature Precipitation Wind Pressure Humidity
00:00 +21°C° 0 mm 4 mps 762 mmHg 94%
01:00 +21°C° 0 mm 4 mps 762 mmHg 94%
02:00 +21°C° 0 mm 3 mps 762 mmHg 93%
03:00 +21°C° 0 mm 3 mps 762 mmHg 93%
04:00 +21°C° 0 mm 2 mps 761 mmHg 93%
05:00 +21°C° 0 mm 2 mps 762 mmHg 92%
06:00 +21°C° 0 mm 2 mps 762 mmHg 91%
07:00 +21°C° 0 mm 2 mps 762 mmHg 91%
08:00 +24°C° 0 mm 3 mps 763 mmHg 85%
09:00 +26°C° 0 mm 3 mps 763 mmHg 80%
10:00 +27°C° 0 mm 3 mps 763 mmHg 75%
11:00 +28°C° 0 mm 3 mps 763 mmHg 71%
12:00 +29°C° 0 mm 2 mps 762 mmHg 67%
13:00 +30°C° 0 mm 1 mps 762 mmHg 64%
14:00 +29°C° 0 mm 2 mps 761 mmHg 69%
15:00 +28°C° 0 mm 3 mps 761 mmHg 74%
16:00 +28°C° 0 mm 4 mps 760 mmHg 79%
17:00 +26°C° 0 mm 3 mps 761 mmHg 82%
18:00 +25°C° 0 mm 3 mps 761 mmHg 84%
19:00 +24°C° 0 mm 3 mps 762 mmHg 87%
20:00 +24°C° 0 mm 3 mps 762 mmHg 87%
21:00 +24°C° 0 mm 3 mps 762 mmHg 87%
22:00 +24°C° 0 mm 3 mps 762 mmHg 87%
23:00 +22°C° 0 mm 3 mps 762 mmHg 88%

6 December, Sunday

Time Temperature Precipitation Wind Pressure Humidity
00:00 +22°C° 0 mm 3 mps 761 mmHg 88%
01:00 +22°C° 0 mm 3 mps 761 mmHg 88%
02:00 +22°C° 0 mm 3 mps 761 mmHg 89%
03:00 +22°C° 0 mm 3 mps 761 mmHg 89%
04:00 +22°C° 0 mm 3 mps 760 mmHg 89%
05:00 +22°C° 0 mm 3 mps 761 mmHg 89%
06:00 +22°C° 0 mm 3 mps 761 mmHg 89%
07:00 +22°C° 0 mm 3 mps 761 mmHg 89%
08:00 +23°C° 0 mm 4 mps 761 mmHg 84%
09:00 +25°C° 0 mm 4 mps 762 mmHg 79%
10:00 +27°C° 0 mm 4 mps 762 mmHg 74%
11:00 +27°C° 0 mm 4 mps 761 mmHg 71%
12:00 +28°C° 0 mm 4 mps 761 mmHg 68%
13:00 +29°C° 0 mm 4 mps 760 mmHg 65%
14:00 +28°C° 0 mm 3 mps 760 mmHg 67%
15:00 +28°C° 0 mm 3 mps 759 mmHg 68%
16:00 +28°C° 0 mm 3 mps 759 mmHg 70%
17:00 +27°C° 0 mm 3 mps 760 mmHg 74%
18:00 +25°C° 0 mm 3 mps 760 mmHg 78%
19:00 +24°C° 0 mm 3 mps 760 mmHg 81%
20:00 +25°C° 0.2 mm 4 mps 761 mmHg 81%
21:00 +25°C° 0.2 mm 4 mps 761 mmHg 80%
22:00 +25°C° 0.2 mm 5 mps 761 mmHg 80%
23:00 +23°C° 0.9 mm 5 mps 760 mmHg 84%

7 December, Monday

Time Temperature Precipitation Wind Pressure Humidity
00:00 +23°C° 0.9 mm 5 mps 760 mmHg 88%
01:00 +23°C° 0.9 mm 5 mps 759 mmHg 92%
02:00 +22°C° 4.9 mm 5 mps 759 mmHg 94%
03:00 +22°C° 4.9 mm 5 mps 759 mmHg 95%
04:00 +22°C° 4.9 mm 5 mps 759 mmHg 97%
05:00 +22°C° 8.7 mm 5 mps 759 mmHg 97%
06:00 +21°C° 8.7 mm 6 mps 760 mmHg 96%
07:00 +21°C° 8.7 mm 6 mps 760 mmHg 96%
08:00 +21°C° 1.6 mm 6 mps 760 mmHg 95%
09:00 +21°C° 1.6 mm 6 mps 761 mmHg 93%
10:00 +21°C° 1.6 mm 6 mps 761 mmHg 92%
11:00 +22°C° 0.1 mm 6 mps 760 mmHg 90%
12:00 +22°C° 0.1 mm 5 mps 760 mmHg 89%
13:00 +22°C° 0.1 mm 5 mps 759 mmHg 87%
14:00 +22°C° 0 mm 5 mps 759 mmHg 85%
15:00 +23°C° 0 mm 4 mps 759 mmHg 83%
16:00 +24°C° 0 mm 3 mps 759 mmHg 81%
17:00 +22°C° 0 mm 3 mps 759 mmHg 83%
18:00 +21°C° 0 mm 2 mps 759 mmHg 85%
19:00 +22°C° 0 mm 1 mps 760 mmHg 87%
20:00 +22°C° 0 mm 1 mps 760 mmHg 87%
21:00 +22°C° 0 mm 1 mps 760 mmHg 86%
22:00 +21°C° 0 mm 1 mps 761 mmHg 86%
23:00 +21°C° 0.4 mm 2 mps 761 mmHg 88%

8 December, Tuesday

Time Temperature Precipitation Wind Pressure Humidity
00:00 +21°C° 0.4 mm 3 mps 761 mmHg 90%
01:00 +21°C° 0.4 mm 5 mps 761 mmHg 91%
02:00 +21°C° 0.4 mm 6 mps 761 mmHg 90%
03:00 +21°C° 0.4 mm 6 mps 761 mmHg 89%
04:00 +22°C° 0.4 mm 7 mps 761 mmHg 88%
05:00 +21°C° 0.1 mm 7 mps 761 mmHg 87%
06:00 +21°C° 0.1 mm 7 mps 762 mmHg 85%
07:00 +20°C° 0.1 mm 7 mps 762 mmHg 83%
08:00 +21°C° 0.1 mm 7 mps 762 mmHg 81%
09:00 +22°C° 0.1 mm 8 mps 763 mmHg 79%
10:00 +23°C° 0.1 mm 8 mps 763 mmHg 77%
11:00 +23°C° 0 mm 8 mps 763 mmHg 74%
12:00 +23°C° 0 mm 8 mps 763 mmHg 71%
13:00 +23°C° 0 mm 7 mps 762 mmHg 68%
14:00 +23°C° 0.1 mm 8 mps 762 mmHg 70%
15:00 +22°C° 0.1 mm 8 mps 762 mmHg 71%
16:00 +22°C° 0.1 mm 8 mps 762 mmHg 73%
17:00 +21°C° 0.1 mm 8 mps 763 mmHg 75%
18:00 +20°C° 0.1 mm 8 mps 763 mmHg 77%
19:00 +18°C° 0.1 mm 8 mps 764 mmHg 79%
20:00 +18°C° 0 mm 7 mps 764 mmHg 78%
21:00 +17°C° 0 mm 7 mps 765 mmHg 77%
22:00 +17°C° 0 mm 6 mps 765 mmHg 76%
23:00 +17°C° 0 mm 6 mps 765 mmHg 75%
Show more

We Need Your Consent

Meteoprog and our Service Providers may store and access personal data such as cookies, device identifiers or other similar technologies on your device and process such data to personalise content and ads, as well as provide social media features and to analyse the traffic.

  • Store and/or access information on your device

    Cookies, device identifiers or other information can be stored or accessed on your device for the purposes indicated above.

  • Personalised ads and content, ad and content measurement, audience insights, and products development

    Ads and content can be personalised based on a profile. More data can be added to better personalise ads and content. Ad and content performance can be measured. Insights about the audience who saw the ads and content can be derived. Such data can be used to develop or improve user’s experience, systems and software.

By clicking ‘I Agree’ you will allow the use of indicated cookies, device identifiers, web beacons or other similar technologies. Your settings can be changed in the browser on your device.

For certain purposes, legitimate interests may be relied on, rather than consent. You can read more about this in our Privacy and Cookie Policy.